Date String (YYYY-MM-DD hh:mm:ss) UTC,Instrument flags,Ambient pressure (hPa),Sample flow (lpm),Bypass flow (lpm),Sample temperature (°C),Ambient temperature (°C),ASC tube jacket temperature (°C),LED temperature (°C),Box temperature (°C),Sample RH (%),Span deviation,Mass concentration (μg/m³),Mass concentration (μg/m³),Mass concentration (μg/m³)
DateTimeUTC,F1_M11,P_M11,Q1_M11,Q2_M11,T1_M11,T2_M11,T3_M11,T4_M11,T5_M11,U1_M11,ZSPAN_M11,X2_M11,X0_M11,X1_M11
2022-03-08 08:00:00,,0824.3,5.01,0.00,22.4,22.3,00.0,31.4,24.2,07.9,-000.5,0008.31,0012.35,0007.84
2022-03-08 08:01:00,,0824.3,5.00,0.00,22.6,23.1,00.0,31.5,24.5,07.9,-000.6,0008.35,0012.39,0007.87
2022-03-08 08:02:00,,0824.2,5.00,0.00,22.7,23.2,00.0,31.5,24.6,07.9,-000.9,0008.33,0012.35,0007.86
2022-03-08 08:03:00,,0824.2,5.01,0.00,22.7,23.0,00.0,31.5,24.6,07.8,-000.9,0008.34,0012.49,0007.86
2022-03-08 08:04:00,,0824.2,5.00,0.00,22.7,22.7,00.0,31.5,24.6,07.8,-000.8,0008.30,0012.39,0007.84
2022-03-08 08:05:00,,0824.2,4.99,0.00,22.7,22.5,00.0,31.5,24.5,07.8,-000.9,0008.29,0012.36,0007.81
2022-03-08 08:06:00,,0824.2,5.01,0.00,22.6,22.3,00.0,31.5,24.4,07.9,-000.8,0008.26,0012.38,0007.77
2022-03-08 08:07:00,,0824.2,5.01,0.00,22.6,22.2,00.0,31.5,24.3,07.9,-000.9,0008.23,0012.37,0007.74
2022-03-08 08:08:00,,0824.2,5.00,0.00,22.6,22.0,00.0,31.5,24.3,07.9,-000.5,0008.21,0012.34,0007.72
2022-03-08 08:09:00,,0824.2,5.00,0.00,22.5,21.7,00.0,31.5,24.2,07.9,-000.2,0008.14,0012.12,0007.67
2022-03-08 08:10:00,,0824.2,4.99,0.00,22.4,21.5,00.0,31.5,24.0,08.0,-000.2,0008.09,0011.79,0007.61
2022-03-08 08:11:00,,0824.3,5.02,0.00,22.3,21.4,00.0,31.5,24.0,08.0,-000.3,0008.03,0011.27,0007.56
2022-03-08 08:12:00,,0824.2,4.99,0.00,22.3,21.3,00.0,31.4,23.9,08.1,0000.0,0007.97,0011.15,0007.53
2022-03-08 08:13:00,,0824.2,5.00,0.00,22.2,21.3,00.0,31.4,23.9,08.1,0000.2,0007.92,0011.06,0007.49
2022-03-08 08:14:00,,0824.2,5.02,0.00,22.2,21.3,00.0,31.4,23.8,08.1,0000.6,0007.89,0011.06,0007.48
2022-03-08 08:15:00,,0824.2,5.00,0.00,22.2,21.2,00.0,31.4,23.8,08.1,0001.5,0007.94,0011.18,0007.51
2022-03-08 08:16:00,,0824.2,5.00,0.00,22.1,21.3,00.0,31.3,23.8,08.1,0001.8,0008.01,0011.22,0007.57
2022-03-08 08:17:00,,0824.3,4.99,0.00,22.2,22.0,00.0,31.4,24.0,08.1,0001.8,0008.03,0011.08,0007.59
2022-03-08 08:18:00,,0824.2,5.00,0.00,22.3,22.8,00.0,31.4,24.3,08.1,0001.8,0008.04,0011.09,0007.60
2022-03-08 08:19:00,,0824.2,5.00,0.00,22.5,23.1,00.0,31.4,24.4,08.0,0001.6,0008.08,0011.19,0007.61
2022-03-08 08:20:00,,0824.2,5.01,0.00,22.5,22.8,00.0,31.4,24.5,08.0,0001.3,0008.07,0011.21,0007.61
2022-03-08 08:21:00,,0824.2,5.00,0.00,22.5,22.5,00.0,31.4,24.4,08.0,0001.1,0008.05,0011.32,0007.58
2022-03-08 08:22:00,,0824.2,4.99,0.00,22.5,22.3,00.0,31.4,24.3,08.0,0001.1,0008.03,0011.48,0007.58
2022-03-08 08:23:00,,0824.2,5.00,0.00,22.5,22.1,00.0,31.4,24.3,08.0,0001.1,0008.09,0011.85,0007.60
2022-03-08 08:24:00,,0824.2,5.00,0.00,22.5,22.0,00.0,31.4,24.2,08.0,0001.3,0008.15,0012.74,0007.63
2022-03-08 08:25:00,,0824.1,5.01,0.00,22.4,21.9,00.0,31.4,24.2,08.0,0001.3,0008.12,0012.56,0007.60
2022-03-08 08:26:00,,0824.1,4.99,0.00,22.4,21.8,00.0,31.4,24.2,08.0,0000.8,0008.01,0012.24,0007.50
2022-03-08 08:27:00,,0824.1,5.01,0.00,22.4,21.8,00.0,31.4,24.2,08.0,0000.3,0007.86,0011.99,0007.40
2022-03-08 08:28:00,,0824.1,5.00,0.00,22.4,21.7,00.0,31.4,24.1,08.0,0000.3,0007.77,0011.86,0007.34
2022-03-08 08:29:00,,0824.1,5.00,0.00,22.4,21.7,00.0,31.4,24.1,08.0,0000.1,0007.69,0012.04,0007.30
2022-03-08 08:30:00,,0824.1,4.99,0.00,22.3,21.6,00.0,31.4,24.1,08.0,0000.3,0007.62,0012.47,0007.26
2022-03-08 08:31:00,,0824.1,5.00,0.00,22.3,21.5,00.0,31.4,24.0,08.0,-000.0,0007.67,0012.74,0007.27
2022-03-08 08:32:00,,0824.1,5.00,0.00,22.3,21.5,00.0,31.4,24.0,08.0,0000.1,0007.70,0012.69,0007.31
2022-03-08 08:33:00,,0824.1,5.00,0.00,22.2,21.4,00.0,31.3,23.9,08.1,0000.2,0007.74,0013.25,0007.35
2022-03-08 08:34:00,,0824.1,5.01,0.00,22.2,21.2,00.0,31.3,23.9,08.1,-000.2,0007.69,0013.20,0007.33
2022-03-08 08:35:00,,0824.2,4.99,0.00,22.2,21.3,00.0,31.3,23.9,08.2,-000.5,0007.68,0012.48,0007.33
2022-03-08 08:36:00,,0824.1,5.00,0.00,22.2,22.0,00.0,31.3,24.0,08.2,-000.6,0007.73,0012.62,0007.37
2022-03-08 08:37:00,,0824.1,5.00,0.00,22.4,22.7,00.0,31.3,24.2,08.1,-000.3,0007.78,0013.17,0007.40
2022-03-08 08:38:00,,0824.1,5.01,0.00,22.5,23.1,00.0,31.4,24.4,08.1,0000.1,0007.85,0013.35,0007.45
2022-03-08 08:39:00,,0824.1,4.99,0.00,22.5,22.8,00.0,31.4,24.4,08.0,0000.2,0007.86,0013.97,0007.44
2022-03-08 08:40:00,,0824.1,5.01,0.00,22.5,22.4,00.0,31.4,24.3,08.0,0000.0,0007.85,0013.98,0007.41
2022-03-08 08:41:00,,0824.1,5.00,0.00,22.4,22.1,00.0,31.4,24.2,08.0,-000.2,0007.84,0013.49,0007.38
2022-03-08 08:42:00,,0824.1,5.00,0.00,22.4,21.9,00.0,31.4,24.1,07.9,-000.4,0007.75,0013.25,0007.31
2022-03-08 08:43:00,,0824.1,5.00,0.00,22.4,21.8,00.0,31.3,24.1,07.9,-000.5,0007.72,0013.33,0007.23
2022-03-08 08:44:00,,0824.1,4.99,0.00,22.3,21.7,00.0,31.3,24.1,07.9,-000.5,0007.61,0012.53,0007.12
2022-03-08 08:45:00,,0824.1,4.99,0.00,22.3,21.6,00.0,31.3,24.0,07.8,-000.5,0007.50,0012.50,0007.01
2022-03-08 08:46:00,,0824.1,5.00,0.00,22.3,21.5,00.0,31.3,24.0,07.8,-000.7,0007.38,0012.91,0006.89
2022-03-08 08:47:00,,0824.1,5.00,0.00,22.2,21.5,00.0,31.3,23.9,07.7,-000.8,0007.22,0013.01,0006.75
2022-03-08 08:48:00,,0824.1,5.01,0.00,22.2,21.4,00.0,31.3,23.9,07.8,-000.9,0007.10,0012.98,0006.63
2022-03-08 08:49:00,,0824.1,5.01,0.00,22.2,21.4,00.0,31.3,23.9,07.7,-001.1,0006.94,0012.82,0006.48
2022-03-08 08:50:00,,0824.1,5.01,0.00,22.2,21.3,00.0,31.3,23.8,07.8,-000.9,0006.80,0012.04,0006.36
2022-03-08 08:51:00,,0824.1,4.99,0.00,22.1,21.1,00.0,31.2,23.7,07.8,-000.6,0006.66,0011.63,0006.23
2022-03-08 08:52:00,,0824.1,5.00,0.00,22.0,21.0,00.0,31.2,23.6,07.8,-000.4,0006.52,0011.35,0006.09
2022-03-08 08:53:00,,0824.1,5.01,0.00,22.1,21.6,00.0,31.2,23.8,07.8,0000.1,0006.40,0011.18,0006.00
2022-03-08 08:54:00,,0824.1,5.00,0.00,22.2,22.5,00.0,31.3,24.1,07.8,0000.7,0006.30,0010.89,0005.94
2022-03-08 08:55:00,,0824.1,5.00,0.00,22.3,23.0,00.0,31.3,24.3,07.9,0000.8,0006.25,0010.82,0005.90
2022-03-08 08:56:00,,0824.1,5.00,0.00,22.4,22.8,00.0,31.3,24.3,07.9,0000.9,0006.25,0010.63,0005.89
2022-03-08 08:57:00,,0824.1,5.01,0.00,22.4,22.5,00.0,31.3,24.2,07.8,0001.2,0006.26,0010.08,0005.85
2022-03-08 08:58:00,,0824.1,5.01,0.00,22.4,22.3,00.0,31.3,24.1,07.7,0001.4,0006.17,0009.76,0005.77
2022-03-08 08:59:00,,0824.1,4.98,0.00,22.3,22.0,00.0,31.3,24.1,07.6,0001.0,0006.04,0009.03,0005.65
